Date String (YYYY-MM-DD hh:mm:ss) UTC,Instrument flags,Ambient pressure (hPa),Sample flow (lpm),Bypass flow (lpm),Sample temperature (°C),Ambient temperature (°C),ASC tube jacket temperature (°C),LED temperature (°C),Box temperature (°C),Sample RH (%),Span deviation,Mass concentration (μg/m³),Mass concentration (μg/m³),Mass concentration (μg/m³)
DateTimeUTC,F1_M11,P_M11,Q1_M11,Q2_M11,T1_M11,T2_M11,T3_M11,T4_M11,T5_M11,U1_M11,ZSPAN_M11,X0_M11,X2_M11,X1_M11
2022-09-03 01:00:00,,0830.2,5.01,0.00,29.5,28.3,00.0,38.1,31.5,19.1,0000.0,0024.93,0008.09,0006.41
2022-09-03 01:01:00,,0830.2,4.99,0.00,29.5,27.6,00.0,38.1,31.4,19.1,0000.0,0023.83,0008.09,0006.43
2022-09-03 01:02:00,,0830.2,5.00,0.00,29.5,26.4,00.0,38.1,31.2,19.1,0000.0,0022.90,0008.11,0006.44
2022-09-03 01:03:00,,0830.2,5.00,0.00,29.4,26.4,00.0,38.1,31.2,19.2,0000.0,0021.87,0008.16,0006.44
2022-09-03 01:04:00,,0830.3,5.00,0.00,29.4,26.7,00.0,38.0,31.1,19.2,0000.0,0022.12,0008.23,0006.44
2022-09-03 01:05:00,,0830.4,5.02,0.00,29.3,27.0,00.0,38.0,31.0,19.2,0000.0,0022.60,0008.16,0006.44
2022-09-03 01:06:00,,0830.3,5.00,0.00,29.3,27.3,00.0,38.0,31.1,19.4,0000.0,0021.76,0008.12,0006.43
2022-09-03 01:07:00,,0830.3,5.01,0.00,29.4,27.6,00.0,38.0,31.2,19.6,0000.0,0020.31,0008.05,0006.44
2022-09-03 01:08:00,,0830.4,5.00,0.00,29.4,27.9,00.0,38.0,31.3,19.7,0000.0,0019.65,0008.03,0006.44
2022-09-03 01:09:00,,0830.4,5.00,0.00,29.4,28.1,00.0,38.1,31.4,19.6,0000.0,0018.66,0008.04,0006.45
2022-09-03 01:10:00,,0830.4,5.01,0.00,29.5,28.3,00.0,38.1,31.4,19.6,0000.0,0018.68,0008.13,0006.48
2022-09-03 01:11:00,,0830.4,4.99,0.00,29.5,28.3,00.0,38.1,31.5,19.6,0000.0,0019.01,0008.18,0006.49
2022-09-03 01:12:00,,0830.4,5.02,0.00,29.5,27.2,00.0,38.1,31.3,19.7,0000.0,0020.76,0008.23,0006.50
2022-09-03 01:13:00,,0830.4,5.00,0.00,29.5,26.4,00.0,38.1,31.2,19.8,0000.0,0020.75,0008.27,0006.51
2022-09-03 01:14:00,,0830.4,5.00,0.00,29.4,26.6,00.0,38.1,31.2,20.0,0000.0,0020.47,0008.28,0006.53
2022-09-03 01:15:00,,0830.4,5.00,0.00,29.4,26.8,00.0,38.0,31.1,20.1,0000.0,0020.25,0008.27,0006.55
2022-09-03 01:16:00,,0830.4,5.01,0.00,29.3,27.1,00.0,38.0,31.1,20.1,0000.0,0020.08,0008.31,0006.57
2022-09-03 01:17:00,,0830.4,5.00,0.00,29.4,27.5,00.0,38.0,31.2,20.0,0000.0,0019.96,0008.36,0006.58
2022-09-03 01:18:00,,0830.4,5.01,0.00,29.4,27.8,00.0,38.0,31.3,20.1,0000.0,0020.70,0008.39,0006.60
2022-09-03 01:19:00,,0830.4,5.00,0.00,29.4,28.0,00.0,38.1,31.3,20.2,0000.0,0021.80,0008.42,0006.62
2022-09-03 01:20:00,,0830.4,4.99,0.00,29.5,28.2,00.0,38.1,31.4,20.1,0000.0,0022.14,0008.46,0006.64
2022-09-03 01:21:00,,0830.4,5.01,0.00,29.5,28.4,00.0,38.1,31.5,20.0,0000.0,0022.56,0008.49,0006.64
2022-09-03 01:22:00,,0830.4,4.98,0.00,29.6,28.1,00.0,38.1,31.5,20.0,0001.6,0022.98,0008.49,0006.65
2022-09-03 01:23:00,,0830.4,5.01,0.00,29.5,26.8,00.0,38.1,31.3,19.8,0002.6,0022.13,0008.49,0006.66
2022-09-03 01:24:00,,0830.4,5.00,0.00,29.5,26.4,00.0,38.1,31.2,19.7,0003.1,0024.03,0008.51,0006.68
2022-09-03 01:25:00,,0830.4,5.00,0.00,29.4,26.6,00.0,38.1,31.1,19.6,0003.4,0024.93,0008.49,0006.67
2022-09-03 01:26:00,,0830.4,4.99,0.00,29.3,26.9,00.0,38.0,31.0,19.7,0000.4,0024.76,0008.52,0006.66
2022-09-03 01:27:00,,0830.4,5.00,0.00,29.4,27.2,00.0,38.0,31.1,19.7,0001.4,0024.29,0008.57,0006.66
2022-09-03 01:28:00,,0830.4,4.99,0.00,29.4,27.5,00.0,38.0,31.2,19.8,0002.5,0024.51,0008.58,0006.67
2022-09-03 01:29:00,,0830.4,5.00,0.00,29.4,27.8,00.0,38.0,31.3,19.9,0002.4,0024.01,0008.57,0006.67
2022-09-03 01:30:00,,0830.4,5.00,0.00,29.4,28.1,00.0,38.1,31.4,19.9,0002.1,0023.60,0008.59,0006.69
2022-09-03 01:31:00,,0830.5,5.01,0.00,29.5,28.3,00.0,38.1,31.4,19.9,0002.9,0023.40,0008.56,0006.68
2022-09-03 01:32:00,,0830.5,4.99,0.00,29.5,28.4,00.0,38.1,31.5,19.8,0003.1,0022.68,0008.47,0006.68
2022-09-03 01:33:00,,0830.6,5.00,0.00,29.5,27.7,00.0,38.2,31.4,19.9,0000.6,0022.25,0008.45,0006.69
2022-09-03 01:34:00,,0830.6,5.01,0.00,29.5,26.5,00.0,38.1,31.2,20.0,0000.0,0021.41,0008.39,0006.69
2022-09-03 01:35:00,,0830.6,5.00,0.00,29.4,26.4,00.0,38.1,31.2,20.1,0000.0,0019.21,0008.34,0006.69
2022-09-03 01:36:00,,0830.7,5.00,0.00,29.4,26.7,00.0,38.1,31.1,20.1,0000.0,0019.55,0008.33,0006.70
2022-09-03 01:37:00,,0830.7,4.99,0.00,29.3,27.0,00.0,38.0,31.1,19.4,0000.0,0021.15,0008.31,0006.68
2022-09-03 01:38:00,,0830.7,5.02,0.00,29.3,27.3,00.0,38.0,31.1,17.8,0000.0,0023.19,0008.26,0006.63
2022-09-03 01:39:00,,0830.8,5.00,0.00,29.4,27.6,00.0,38.0,31.2,16.9,0000.0,0024.26,0008.17,0006.56
2022-09-03 01:40:00,,0830.7,5.01,0.00,29.4,27.8,00.0,38.1,31.3,17.0,0000.0,0025.01,0008.12,0006.49
2022-09-03 01:41:00,,0830.8,4.98,0.00,29.4,28.1,00.0,38.1,31.4,16.7,0000.0,0025.48,0008.00,0006.41
2022-09-03 01:42:00,,0830.9,5.01,0.00,29.5,28.3,00.0,38.1,31.4,16.7,0000.0,0025.52,0007.87,0006.35
2022-09-03 01:43:00,,0830.9,4.99,0.00,29.5,28.4,00.0,38.1,31.5,16.7,0000.0,0025.70,0007.81,0006.27
2022-09-03 01:44:00,,0830.9,5.00,0.00,29.5,27.9,00.0,38.1,31.5,16.6,0000.0,0025.16,0007.69,0006.18
2022-09-03 01:45:00,,0830.9,5.00,0.00,29.5,26.6,00.0,38.1,31.3,16.6,0000.0,0024.71,0007.59,0006.12
2022-09-03 01:46:00,,0831.0,5.00,0.00,29.5,26.3,00.0,38.1,31.3,16.4,0000.0,0024.44,0007.47,0006.02
2022-09-03 01:47:00,,0831.0,5.01,0.00,29.4,26.6,00.0,38.0,31.2,16.9,0000.0,0023.33,0007.30,0005.91
2022-09-03 01:48:00,,0831.0,4.99,0.00,29.4,26.9,00.0,38.0,31.1,16.8,0000.0,0021.76,0007.20,0005.83
2022-09-03 01:49:00,,0831.1,5.01,0.00,29.4,27.3,00.0,38.0,31.1,17.1,0000.0,0019.40,0007.08,0005.76
2022-09-03 01:50:00,,0831.1,5.00,0.00,29.4,27.6,00.0,38.0,31.2,17.3,0000.0,0017.08,0006.97,0005.74
2022-09-03 01:51:00,,0831.2,5.01,0.00,29.4,27.9,00.0,38.1,31.3,17.5,0000.0,0016.05,0006.91,0005.72
2022-09-03 01:52:00,,0831.2,5.00,0.00,29.5,28.1,00.0,38.1,31.4,17.5,0000.0,0016.04,0006.87,0005.70
2022-09-03 01:53:00,,0831.2,4.99,0.00,29.5,28.3,00.0,38.1,31.4,17.4,0000.0,0015.85,0006.87,0005.68
2022-09-03 01:54:00,,0831.2,5.00,0.00,29.5,28.4,00.0,38.1,31.5,17.3,0000.0,0016.45,0006.82,0005.66
2022-09-03 01:55:00,,0831.2,4.99,0.00,29.6,28.1,00.0,38.2,31.5,17.4,0000.0,0017.40,0006.81,0005.64
2022-09-03 01:56:00,,0831.2,5.01,0.00,29.5,26.8,00.0,38.1,31.4,17.3,0000.0,0018.14,0006.77,0005.61
2022-09-03 01:57:00,,0831.2,5.00,0.00,29.5,26.4,00.0,38.1,31.3,17.5,0000.0,0018.40,0006.79,0005.61
2022-09-03 01:58:00,,0831.2,5.00,0.00,29.4,26.6,00.0,38.1,31.2,17.2,0000.0,0018.54,0006.80,0005.60
2022-09-03 01:59:00,,0831.3,4.99,0.00,29.4,26.8,00.0,38.0,31.0,17.5,0000.0,0018.07,0006.77,0005.59
